Temperature
25 22 21 22 23 23 24 23 23 23 23 21 19 18 18 18 18 18 18 18 18 18 18 18 18 18 19 19 19 19 19 18 18 18 18 17 17 17 17 16 16 16 16 16
23 22 24 25 25 25 24 23 23 22 23 21 19 18 18 17 17 17 18 18 18 18 18 18 18 18 19 19 19 19 18 18 18 18 17 17 17 16 16 16 16 16 15 15
24 24 25 26 25 25 24 23 23 22 21 20 19 18 17 17 17 18 18 18 18 18 18 19 19 19 19 19 19 18 18 18 17 17 17 16 16 16 16 16 15 15 15 15
24 25 25 25 25 25 23 24 24 23 20 18 19 17 17 16 17 17 18 18 19 19 19 19 19 19 19 19 18 18 18 17 17 17 16 16 16 15 15 15 15 15 14 14
23 24 24 24 25 25 23 24 23 21 19 17 18 17 17 16 16 17 17 18 19 19 19 19 19 19 19 19 18 18 17 17 17 16 16 15 15 15 14 14 14 14 14 14
24 25 24 25 26 25 24 21 20 18 17 17 17 17 16 15 16 17 18 18 19 19 20 20 20 19 19 18 18 18 17 17 16 16 15 15 15 14 14 14 14 13 13 13
23 24 24 24 24 24 22 20 19 18 17 17 17 17 16 17 17 17 17 18 19 20 20 20 19 19 19 18 18 17 17 16 16 15 15 14 14 14 14 13 13 13 13 13
23 23 24 24 24 24 22 21 19 19 18 17 17 16 17 18 18 18 18 19 19 20 20 20 19 19 18 18 17 17 16 16 15 15 14 14 13 13 13 13 12 12 12 12
22 23 25 25 25 24 23 21 20 17 17 16 17 17 17 18 18 18 19 19 19 20 20 19 19 18 18 17 17 16 16 15 14 14 13 13 13 12 12 12 12 12 12 12
23 23 23 24 24 24 22 21 19 18 17 18 18 17 17 18 18 18 18 19 19 19 19 19 18 18 17 17 16 16 15 14 14 13 13 12 12 12 11 11 11 11 11 11
22 22 22 22 23 22 22 22 19 17 18 17 18 18 19 18 18 18 18 20 20 19 19 18 18 17 17 16 16 15 14 13 13 12 12 12 11 11 11 10 10 10 10 10
22 19 20 21 22 23 22 22 20 19 19 17 17 18 20 19 19 19 20 20 20 19 18 18 17 17 16 15 15 14 13 13 12 12 11 11 11 10 10 10 10 9 9 9
23 19 19 20 20 22 22 23 21 18 17 17 17 18 20 19 19 20 20 20 19 18 18 17 17 16 15 14 14 13 12 12 11 11 11 10 10 10 9 9 9 9 9 9
22 20 20 21 21 22 23 24 23 20 18 19 18 19 19 19 18 19 19 19 18 18 17 16 16 15 14 14 13 12 12 11 11 11 10 10 9 9 9 9 8 8 8 8
21 22 22 22 23 24 24 24 23 22 20 19 19 18 18 18 18 19 19 18 17 17 16 16 15 14 14 13 12 12 11 11 10 10 10 9 9 9 8 8 8 8 8 8
21 22 23 22 24 24 24 24 24 23 22 20 19 19 19 19 19 18 18 17 17 16 16 15 14 14 13 12 12 11 11 10 10 10 9 9 8 8 8 8 8 8 7 7
20 21 21 20 22 23 22 23 23 23 22 20 19 19 18 17 17 17 17 17 17 16 15 15 14 13 13 12 11 11 11 10 10 9 9 8 8 8 8 8 8 7 7 7
20 19 18 19 21 22 21 22 23 21 20 20 19 18 18 18 18 18 18 17 16 16 15 14 14 13 12 12 11 11 10 10 9 9 9 8 8 8 8 8 8 7 7 7
19 19 19 18 20 21 22 22 22 20 20 20 19 18 18 18 17 16 17 17 16 15 15 14 13 13 12 11 11 10 10 9 9 9 8 8 8 8 8 8 8 7 7 7
19 19 19 19 20 20 21 22 23 20 19 20 19 18 18 17 14 15 17 16 16 15 14 14 13 12 12 11 11 10 10 9 9 9 8 8 8 8 8 8 8 8 7 7
20 19 19 19 19 20 21 23 23 21 19 21 21 20 20 18 17 18 17 16 16 15 14 13 13 12 11 11 10 10 9 9 9 9 8 8 8 8 8 8 8 8 7 7
20 19 18 18 19 19 21 22 21 20 21 22 21 21 20 20 19 18 17 16 16 15 14 13 12 12 11 11 10 10 9 9 9 9 8 8 8 8 8 8 8 8 7 7
20 19 18 18 19 21 24 24 24 23 22 22 22 21 20 19 18 18 17 16 15 15 14 13 12 12 11 10 10 9 9 9 9 9 8 8 8 8 8 8 8 8 7 7
21 21 20 20 20 22 24 24 24 24 23 22 22 21 20 20 19 18 17 16 15 15 14 13 12 12 11 10 10 9 9 9 9 9 8 8 8 8 8 8 8 8 7 7
22 22 20 19 20 22 23 24 24 23 23 22 22 21 20 20 19 18 17 16 15 14 14 13 12 12 11 10 10 9 9 9 9 9 8 8 8 8 8 8 8 8 7 7
21 21 20 20 21 20 23 24 24 23 22 22 21 21 20 20 19 18 17 16 15 14 14 13 12 11 11 10 10 9 9 9 9 9 8 8 8 8 8 8 8 8 8 8
Wind_Speed
3 2 4 8 8 9 6 3 4 3 2 8 12 10 8 7 6 5 5 6 5 4 5 5 5 6 6 5 6 5 5 4 3 2 2 2 2 1 1 1 1 1 1 2
4 4 9 8 7 4 4 3 3 1 4 6 9 7 5 5 4 3 3 4 3 2 3 4 5 5 5 5 5 5 4 3 2 2 1 1 1 1 0 1 2 2 2 2
5 7 5 5 4 4 4 3 4 3 4 7 5 4 3 2 2 1 2 2 3 4 5 6 5 5 5 6 6 5 5 4 2 2 1 2 3 3 3 2 3 3 4 3
4 5 3 5 5 2 3 2 3 5 5 3 2 1 3 3 2 1 2 2 4 4 5 5 6 7 7 7 6 6 5 4 3 2 2 2 1 1 3 3 3 5 4 4
5 4 4 4 5 1 2 1 5 6 6 4 4 1 4 4 3 4 4 5 5 5 5 6 7 8 7 6 5 5 4 3 3 3 3 2 2 3 3 3 4 5 5 4
5 3 2 3 4 1 6 5 7 7 5 3 4 1 4 3 4 5 5 7 6 5 5 6 6 4 3 3 4 3 3 2 2 2 2 3 4 4 4 4 5 4 4 4
6 5 2 1 4 3 5 5 4 5 5 1 3 1 5 7 6 6 7 7 7 5 4 3 4 3 3 4 3 3 3 1 2 1 2 3 4 4 5 5 5 5 4 4
2 6 2 1 2 2 1 6 5 3 3 2 2 3 7 8 7 6 6 5 4 3 2 2 3 3 3 3 4 3 2 1 1 2 3 3 4 3 4 5 4 5 4 5
3 4 3 1 1 4 2 1 5 7 4 3 2 4 7 5 6 6 5 4 4 3 3 4 5 5 5 4 3 3 2 1 2 3 3 3 3 3 4 5 4 4 5 5
4 1 4 4 3 3 4 4 5 5 4 3 2 3 4 6 6 5 5 5 5 4 4 5 5 5 4 3 2 2 1 0 2 2 3 3 4 4 5 4 5 6 6 5
4 3 4 5 3 2 5 3 4 4 5 6 3 4 6 9 8 7 7 7 7 5 6 5 4 3 3 2 2 1 1 2 2 3 3 4 5 5 5 5 6 6 6 6
3 5 1 5 5 2 2 3 5 4 0 4 5 4 4 8 7 8 7 6 6 7 6 5 4 2 2 2 2 2 2 3 3 3 4 4 5 5 6 6 7 7 7 7
5 6 4 8 8 4 1 3 5 6 5 4 5 4 2 5 5 6 7 7 6 6 5 3 2 1 0 1 2 3 3 4 4 4 4 5 6 6 6 7 7 7 7 8
5 4 6 5 8 5 3 2 3 7 4 4 6 7 5 6 7 6 6 7 7 6 5 3 1 1 2 2 3 3 4 4 4 4 5 6 7 7 7 7 8 8 8 8
5 2 3 5 5 3 3 2 2 5 8 7 9 10 10 10 9 8 7 7 7 6 4 3 2 2 2 3 4 4 4 5 5 5 6 7 7 7 7 7 8 8 8 9
4 2 2 5 5 4 3 1 3 4 6 9 10 6 7 6 5 5 7 8 7 5 4 3 1 1 2 3 4 4 5 6 5 5 6 7 7 7 8 8 8 8 9 9
2 4 2 4 7 4 2 2 3 4 5 9 8 7 7 6 7 8 7 7 7 5 4 2 2 3 3 4 3 4 5 5 5 6 7 7 7 8 8 9 9 9 9 9
6 5 4 1 5 2 7 2 7 7 4 6 8 8 8 8 7 7 8 8 7 5 4 3 2 3 3 3 3 4 5 5 6 7 7 7 8 8 9 9 9 9 8 9
7 7 4 3 1 4 3 2 5 7 3 4 9 8 7 7 5 1 5 7 7 5 4 4 3 3 2 3 4 4 5 6 6 7 8 8 8 9 10 10 10 10 9 9
5 6 5 3 2 5 7 5 5 9 2 4 8 9 8 7 3 4 6 6 6 5 3 3 2 1 2 4 3 4 6 6 7 8 9 9 9 9 10 11 10 9 8 9
2 2 4 4 4 6 7 5 4 3 8 7 9 9 8 7 7 6 7 6 5 4 4 2 1 1 4 4 3 4 6 7 8 8 9 9 9 9 10 9 8 9 9 8
7 5 5 4 4 7 8 5 7 9 7 8 9 10 9 8 7 8 8 6 5 3 2 1 0 3 4 3 3 5 7 8 8 8 9 10 10 9 9 9 9 9 8 8
4 8 6 8 8 9 7 9 8 9 9 9 9 9 10 10 8 8 7 6 4 3 2 1 1 3 4 4 3 5 7 7 7 8 9 10 10 9 9 9 9 9 7 6
5 2 3 3 7 6 6 6 7 9 9 9 9 10 10 10 9 8 7 5 4 3 2 2 2 3 5 5 5 5 6 6 7 8 9 9 9 10 10 8 7 7 7 6
6 3 2 4 5 0 3 7 9 8 8 9 9 9 11 11 9 9 7 6 5 4 3 2 2 3 5 5 5 6 5 5 7 8 8 9 8 9 9 8 7 7 7 7
3 3 3 5 7 6 7 8 9 11 10 11 11 9 9 10 10 9 8 6 5 5 3 2 3 3 4 4 5 5 5 5 6 7 8 7 8 8 7 8 9 10 9 11
Wind_Direction
306 86 260 253 227 221 250 273 305 322 71 81 83 77 59 39 51 74 98 96 93 111 139 131 126 123 112 103 97 91 88 81 75 59 38 32 3 339 349 315 279 260 263 246
356 289 261 260 263 253 277 262 264 38 64 84 91 82 71 59 43 32 64 89 107 141 153 143 140 139 134 135 132 128 127 124 113 116 130 165 231 285 292 339 324 300 281 261
222 248 290 319 314 303 302 235 222 165 79 69 88 34 2 10 46 55 103 137 180 189 184 170 163 165 162 164 166 160 164 153 145 128 78 35 25 9 1 341 310 299 287 272
264 267 306 320 292 267 284 245 161 127 100 48 45 256 304 316 335 320 204 215 218 217 197 185 180 182 188 190 179 173 174 171 169 139 118 125 135 270 266 269 280 294 290 278
272 292 313 298 277 199 204 94 105 110 102 69 17 86 298 313 302 289 267 243 235 221 205 200 198 195 194 186 175 177 175 181 190 180 172 170 218 239 265 284 300 300 294 285
258 270 274 274 311 93 120 79 57 59 73 53 329 43 298 265 254 274 276 264 243 222 216 204 207 184 168 151 148 154 161 199 222 216 213 212 235 254 278 291 294 293 291 289
316 313 302 314 348 3 82 86 41 22 30 297 301 344 264 258 248 249 261 263 255 226 214 202 192 171 153 136 135 134 145 221 259 251 260 249 246 252 258 268 273 279 284 283
307 318 306 247 211 203 120 126 147 171 185 233 295 261 264 265 264 264 259 257 256 245 218 172 163 138 117 115 113 116 131 203 270 275 281 286 283 272 266 264 264 265 260 263
194 273 322 327 307 131 88 60 151 127 110 117 249 280 296 268 262 255 236 224 220 207 154 136 122 111 110 112 117 130 139 238 283 287 291 296 295 285 280 281 276 271 270 276
153 225 318 323 17 29 132 142 85 99 133 139 202 238 240 237 230 227 205 189 189 167 129 121 118 118 120 123 118 110 113 268 296 307 303 305 294 288 283 285 285 279 276 278
103 116 321 351 17 340 17 43 101 117 145 142 176 255 222 203 198 187 186 180 172 151 138 136 132 126 118 99 80 46 5 339 319 312 305 309 301 297 294 286 281 280 277 278
117 116 315 288 274 209 192 195 140 122 32 129 137 256 248 181 182 173 175 172 154 142 140 139 132 114 85 44 1 344 326 315 299 294 299 299 297 300 300 293 287 283 279 277
109 96 39 345 340 340 261 219 152 131 113 124 136 233 235 144 153 164 162 155 144 139 135 130 114 90 12 320 318 310 305 299 294 297 305 305 302 299 294 291 288 285 281 280
110 108 154 199 241 259 267 268 146 122 130 152 171 172 177 165 169 179 168 157 150 143 141 139 137 279 284 289 291 294 299 292 298 302 302 297 292 287 285 286 287 284 281 280
100 127 235 248 263 281 270 254 178 149 162 156 174 170 193 191 186 186 167 147 133 134 138 145 177 247 274 287 291 293 296 297 299 301 298 289 286 286 288 289 287 284 281 284
99 141 5 325 316 323 322 337 115 117 121 132 140 175 201 184 158 146 143 138 138 148 158 167 197 251 275 281 283 293 296 294 296 300 295 292 294 295 293 291 288 286 282 279
150 138 106 291 308 0 323 242 116 105 137 148 167 184 170 157 160 162 158 151 156 167 179 201 235 248 261 271 272 283 288 297 308 305 299 297 298 297 295 298 298 289 284 279
157 137 137 231 8 306 251 236 117 99 67 119 129 152 163 164 167 174 168 159 166 176 190 216 233 250 260 268 279 287 300 309 308 304 302 301 300 299 299 296 293 288 283 280
152 144 134 130 236 282 287 278 146 122 78 138 137 146 146 137 105 155 191 170 174 183 191 205 215 223 253 281 289 306 313 312 310 306 303 301 300 301 303 301 297 292 286 284
89 107 126 151 179 241 244 242 143 104 121 203 150 150 153 141 126 238 203 176 173 175 178 188 212 240 289 287 297 317 312 311 306 301 299 299 299 298 299 298 295 290 286 282
88 89 155 189 211 254 238 214 122 140 220 199 162 159 156 167 193 195 175 176 170 165 168 164 136 292 280 280 304 315 309 301 294 297 302 304 302 300 296 294 293 294 294 293
179 173 200 169 190 248 229 174 173 201 187 169 160 162 159 165 159 155 163 165 159 156 162 148 301 294 286 285 302 308 301 292 297 304 308 308 306 307 311 303 301 300 300 299
184 188 186 186 211 228 202 191 193 160 164 172 167 167 153 149 159 163 165 167 170 168 189 211 245 293 297 292 285 294 291 297 306 312 312 310 310 308 305 302 303 306 305 300
298 189 149 233 257 230 199 180 172 169 169 170 163 159 151 154 160 161 167 176 182 193 204 221 266 299 297 292 289 280 290 303 311 313 311 310 312 311 311 308 302 301 302 300
263 348 357 290 285 261 194 186 180 173 158 154 154 156 156 153 161 166 173 183 191 199 211 212 242 271 281 290 294 296 305 316 317 312 309 311 309 307 309 309 302 295 283 273
250 198 189 237 234 194 216 208 174 164 166 163 157 159 162 161 165 164 172 183 186 194 200 217 251 266 278 288 295 302 308 313 314 314 314 311 311 310 309 311 313 305 292 290
Height
1501 1507 1512 1507 1504 1504 1503 1506 1507 1503 1497 1501 1510 1515 1515 1515 1515 1515 1514 1514 1517 1518 1518 1518 1518 1518 1518 1518 1518 1518 1518 1517 1517 1516 1516 1515 1514 1514 1512 1511 1510 1509 1507 1506
1505 1508 1500 1496 1496 1496 1499 1505 1507 1504 1500 1505 1513 1516 1515 1516 1517 1517 1517 1516 1517 1518 1519 1519 1519 1518 1518 1518 1517 1517 1517 1517 1516 1516 1515 1514 1512 1511 1510 1509 1507 1505 1504 1503
1505 1499 1492 1493 1495 1498 1499 1503 1504 1506 1506 1508 1513 1522 1521 1518 1515 1516 1516 1516 1518 1517 1518 1518 1517 1517 1517 1517 1517 1517 1517 1516 1515 1514 1513 1512 1510 1509 1507 1505 1504 1502 1501 1500
1497 1491 1491 1493 1494 1495 1504 1494 1496 1501 1514 1526 1521 1535 1527 1523 1519 1518 1516 1516 1516 1516 1516 1516 1516 1516 1516 1516 1515 1515 1515 1514 1513 1512 1511 1509 1507 1506 1504 1502 1501 1499 1498 1496
1499 1492 1492 1494 1490 1490 1496 1493 1497 1503 1517 1528 1526 1534 1531 1524 1522 1518 1514 1514 1514 1514 1515 1515 1515 1515 1515 1515 1514 1514 1513 1512 1511 1510 1508 1507 1505 1503 1501 1499 1497 1495 1494 1493
1493 1489 1489 1488 1484 1485 1491 1499 1506 1514 1524 1540 1535 1536 1534 1525 1521 1516 1512 1512 1513 1513 1513 1513 1513 1514 1514 1513 1513 1512 1511 1510 1509 1507 1505 1504 1501 1499 1497 1495 1493 1492 1490 1489
1499 1492 1488 1487 1489 1488 1494 1510 1528 1535 1544 1545 1535 1535 1531 1517 1514 1513 1512 1512 1512 1512 1512 1512 1512 1513 1512 1512 1511 1510 1509 1508 1506 1504 1502 1500 1498 1496 1494 1491 1489 1487 1486 1484
1510 1508 1491 1487 1489 1493 1496 1505 1527 1540 1547 1545 1538 1538 1526 1512 1510 1511 1511 1512 1511 1511 1511 1511 1511 1511 1511 1510 1510 1508 1507 1505 1503 1501 1499 1497 1494 1492 1490 1487 1485 1483 1481 1480
1507 1505 1488 1484 1483 1486 1495 1503 1505 1525 1537 1546 1542 1533 1521 1511 1511 1511 1511 1511 1510 1510 1510 1510 1510 1510 1510 1509 1508 1506 1504 1502 1500 1498 1495 1493 1490 1488 1485 1483 1480 1478 1476 1474
1495 1503 1493 1487 1485 1486 1489 1494 1508 1523 1539 1545 1541 1536 1530 1516 1512 1510 1510 1510 1510 1509 1509 1509 1509 1508 1508 1507 1505 1503 1501 1499 1496 1494 1491 1489 1486 1483 1480 1478 1475 1473 1470 1468
1491 1503 1500 1494 1495 1496 1494 1497 1505 1517 1522 1538 1545 1537 1510 1509 1508 1508 1508 1508 1508 1508 1508 1508 1508 1507 1506 1505 1503 1500 1498 1495 1493 1490 1487 1484 1481 1478 1475 1472 1469 1467 1464 1462
1490 1504 1510 1500 1490 1488 1491 1494 1502 1517 1521 1525 1535 1533 1501 1503 1504 1505 1506 1506 1506 1507 1507 1507 1506 1505 1504 1502 1500 1497 1495 1492 1489 1486 1483 1479 1476 1473 1470 1467 1464 1461 1458 1456
1488 1504 1519 1515 1506 1493 1491 1489 1492 1504 1516 1524 1533 1527 1502 1503 1504 1504 1504 1505 1505 1506 1506 1505 1504 1503 1501 1499 1496 1494 1491 1488 1485 1481 1478 1475 1471 1468 1464 1461 1458 1455 1452 1450
1483 1501 1513 1519 1511 1496 1493 1488 1487 1499 1516 1518 1517 1515 1507 1505 1504 1504 1504 1504 1504 1504 1504 1503 1502 1500 1498 1496 1493 1490 1487 1484 1481 1477 1474 1470 1466 1462 1459 1455 1452 1449 1446 1443
1484 1497 1495 1494 1488 1486 1486 1485 1485 1490 1497 1509 1509 1509 1505 1502 1501 1502 1502 1502 1503 1503 1502 1501 1499 1497 1495 1493 1490 1487 1483 1480 1476 1473 1469 1465 1461 1457 1453 1449 1446 1443 1439 1436
1485 1493 1493 1494 1486 1485 1486 1483 1483 1484 1488 1496 1502 1504 1498 1498 1499 1500 1500 1501 1501 1500 1500 1498 1496 1494 1492 1489 1486 1483 1479 1476 1472 1468 1464 1460 1456 1452 1448 1444 1440 1436 1433 1430
1488 1493 1500 1505 1493 1490 1497 1486 1484 1486 1485 1492 1501 1499 1496 1498 1498 1498 1499 1499 1498 1498 1497 1495 1493 1491 1488 1485 1482 1479 1476 1472 1468 1464 1460 1456 1451 1447 1442 1438 1435 1431 1428 1425
1486 1493 1502 1506 1503 1509 1496 1478 1479 1486 1487 1486 1489 1492 1493 1494 1496 1496 1496 1496 1496 1495 1494 1492 1490 1487 1485 1482 1479 1476 1472 1468 1464 1460 1455 1451 1446 1442 1437 1433 1430 1426 1423 1419
1476 1487 1499 1508 1510 1503 1488 1480 1480 1487 1493 1487 1489 1491 1492 1494 1495 1496 1495 1494 1493 1492 1490 1489 1487 1484 1482 1479 1475 1472 1468 1464 1460 1455 1451 1446 1442 1437 1433 1429 1425 1421 1418 1414
1475 1481 1496 1504 1508 1510 1492 1477 1475 1482 1495 1487 1486 1488 1490 1491 1497 1495 1492 1491 1490 1489 1487 1486 1484 1481 1478 1475 1472 1468 1464 1460 1456 1451 1447 1443 1438 1433 1429 1425 1421 1417 1413 1409
1486 1489 1496 1502 1505 1496 1479 1473 1475 1493 1493 1482 1482 1483 1485 1486 1488 1488 1488 1488 1488 1486 1485 1483 1481 1478 1475 1472 1468 1465 1461 1456 1452 1448 1444 1439 1434 1430 1426 1421 1417 1413 1409 1405
1485 1492 1495 1499 1504 1497 1470 1471 1476 1477 1474 1476 1478 1479 1481 1482 1484 1485 1485 1485 1485 1483 1482 1480 1477 1475 1472 1469 1465 1461 1457 1453 1449 1445 1440 1436 1431 1427 1423 1418 1414 1410 1405 1401
1477 1478 1481 1484 1483 1466 1463 1464 1465 1467 1470 1472 1474 1476 1477 1479 1481 1482 1482 1482 1481 1480 1479 1477 1475 1472 1469 1466 1462 1458 1454 1450 1446 1442 1437 1433 1428 1424 1420 1415 1411 1406 1402 1398
1470 1466 1469 1471 1465 1460 1460 1461 1463 1464 1466 1469 1471 1473 1474 1476 1477 1478 1479 1479 1478 1477 1476 1474 1471 1469 1466 1463 1460 1456 1452 1447 1443 1439 1434 1430 1425 1421 1417 1413 1408 1404 1399 1395
1468 1465 1468 1469 1462 1460 1460 1459 1461 1463 1465 1467 1469 1470 1471 1472 1474 1475 1475 1475 1474 1473 1472 1470 1468 1466 1463 1460 1456 1453 1449 1444 1440 1436 1432 1427 1423 1419 1414 1410 1406 1402 1398 1394
1464 1464 1467 1467 1459 1458 1457 1457 1459 1460 1462 1464 1466 1467 1468 1469 1469 1470 1471 1471 1471 1470 1469 1467 1465 1463 1460 1457 1453 1450 1446 1442 1437 1433 1429 1425 1421 1416 1412 1408 1403 1399 1396 1391